Location: Echo Hill Outdoor School
(39.3621°N, 76.1137°W)
Time: 11:12:25
(UTC-04:00)

Tiangong 2 - Visible Passes

Search period start: 25 June 2018 00:00
Search period end: 05 July 2018 00:00
Orbit: 385 x 396 km, 42.8° (Epoch: 25 June)

Date Brightness Start Highest point End Pass type
(mag) Time Alt. Az. Time Alt. Az. Time Alt. Az.
25 Jun 3.0 04:51:48 10° SSW 04:54:17 21° SE 04:56:47 10° E visible
26 Jun 3.5 03:56:31 12° SSE 03:56:56 12° SE 03:58:14 10° ESE visible
27 Jun 1.9 04:33:50 17° SW 04:35:52 38° SSE 04:38:53 10° E visible
28 Jun 2.8 03:38:46 22° SE 03:38:46 22° SE 03:41:02 10° E visible
29 Jun 1.1 04:15:58 27° WSW 04:17:31 72° SSE 04:20:43 10° ENE visible
30 Jun 2.3 03:20:49 34° ESE 03:20:49 34° ESE 03:23:03 10° E visible
30 Jun 1.8 04:53:43 10° W 04:56:52 53° N 05:00:01 10° ENE visible
01 Jul 1.2 03:57:59 33° W 03:59:13 71° NNW 04:02:26 10° ENE visible
02 Jul 2.4 03:02:48 35° ENE 03:02:48 35° ENE 03:04:49 10° ENE visible
02 Jul 2.2 04:35:34 10° WNW 04:38:39 43° N 04:41:45 10° ENE visible
03 Jul 1.8 03:39:57 34° WNW 03:40:58 50° N 03:44:05 10° ENE visible
04 Jul 3.0 02:44:48 28° ENE 02:44:48 28° ENE 02:46:29 10° ENE visible
04 Jul 2.3 04:17:22 10° WNW 04:20:25 42° N 04:23:30 10° ENE visible
